Home > Time Zones > World Clock > Weather > Ghana > Accra > Past weeks

Flag for Ghana Weather past 2 weeks in Accra, Ghana

Now
75 °F

Mostly cloudy.


Feels Like: 74 °F
Forecast: 76 / 80 °F
Wind: 9 mph from South

Location: Accra Airport

Current Time: Jul 28, 2014 at 5:56:15 AM

Latest Report: Jul 28, 2014 at 2:51 AM


Visibility: N/A

Pressure: 29.92 "Hg

Humidity: 94%

Dew point: 73 °F

Location of AccraLocation

Historic Weather in Accra — Graph

°F

Accra temperature yesterday

Maximum temperature yesterday: 79 °F (at 11:00 AM)
Minimum temperature yesterday: 75 °F (at 3:00 AM)
Average temperature yesterday: 77 °F

Past Weeks' High & Low Weather Summary

 TemperatureHumidityPressure
High86 °F (Jul 15, 1:00 PM)100% (Jul 17, 7:55 AM)30.07 "Hg (Jul 17, 7:55 AM)
Low72 °F (Jul 16, 5:45 AM)70% (Jul 13, 2:00 PM)29.89 "Hg (Jul 13, 4:00 PM)
Average77 °F87%29.98 "Hg
* Reported Jul 13 2:00 AM — Jul 28 2:51 AM, Accra, Weather by CustomWeather, © 2014

Note: Actual official high and low records may vary slightly from our data, if they occured in-between our weather recording intervals... More about our weather records

Advertising

Accra weather history for previous 24 hours

 ConditionsComfort  
Time TempWeatherWind HumidityBarometerVisibility
2:51 AM
Jul 28
75 °FMostly cloudy.9 mph94%29.92 "HgN/A
12:00 AM77 °FMostly cloudy.7 mph89%29.95 "HgN/A
11:00 PM
Jul 27
77 °FMostly cloudy.10 mph89%29.98 "HgN/A
10:00 PM77 °FPassing clouds.14 mph89%29.95 "HgN/A
9:00 PM77 °FPartly cloudy.14 mph89%29.95 "HgN/A
8:02 PM77 °FOvercast.12 mph89%29.92 "HgN/A
7:00 PM77 °FMostly cloudy.14 mph89%29.92 "HgN/A
6:00 PM77 °FMostly cloudy.12 mph89%29.89 "HgN/A
5:00 PM77 °FMostly cloudy.15 mph89%29.89 "HgN/A
4:00 PM79 °FMostly cloudy.15 mph84%29.89 "HgN/A
3:00 PM79 °FBroken clouds.16 mph84%29.89 "HgN/A
2:00 PM79 °FOvercast.14 mph79%29.92 "HgN/A
1:00 PM79 °FPartly sunny.14 mph84%29.92 "HgN/A
12:00 PM79 °FPartly sunny.15 mph84%29.95 "HgN/A
11:00 AM79 °FPartly sunny.14 mph84%29.98 "HgN/A
10:00 AM77 °FBroken clouds.13 mph89%29.98 "HgN/A
9:00 AM77 °FMostly cloudy.12 mph89%29.98 "HgN/A
8:00 AM77 °FMostly cloudy.10 mph89%29.98 "HgN/A
6:49 AM75 °FPartly sunny.8 mph94%30.04 "HgN/A
5:46 AM75 °FPartly cloudy.10 mph94%29.95 "HgN/A
5:00 AM75 °FPartly cloudy.8 mph94%29.92 "HgN/A
Weather by CustomWeather, © 2014

See weather overviewHow to use our weather pages